Retour au catalogue

GORIZONT 11

ActifCommunicationsGEO
NORAD 15484·PAYLOAD·🇷🇺 Russia

Lancé Jan 18, 1985 depuis Baikonur Cosmodrome

Loading…

TLE

FraisSource: Space-Track

Époque: Sep 14, 2026, 02:43 UTC

1 15484U 85007A   26257.11364017 -.00000299  00000-0  00000-0 0  9998
2 15484   9.0046 315.0384 0004165 263.1561 129.7323  1.00206724153522

Suivez GORIZONT 11 en temps réel avec AllMySat

Download on the App Store